When you browse on this site, cookies collect data to enhance your experience and personalize the content and advertising you see.
Visit our Privacy Policy to learn more. By continuing to use the site, you agree to this use of cookies and data.
  • en Suisse
  • Liste des pays
  • À 7 jours
  • Température de l'eau
  • Carte météo
  • Widgets météo
  • user-avatar
    Se connecter

    Météo par heure à Lenkoran

    Ce jour, 23 Février, Dimanche

    Heure Température Précipitation Vent Pression Humidité
    00:00 +2°C° 0 mm 1 m/s 633 mmHg 84%
    01:00 +1°C° 0 mm 2 m/s 633 mmHg 83%
    02:00 +1°C° 0 mm 2 m/s 633 mmHg 82%
    03:00 +1°C° 0 mm 2 m/s 632 mmHg 81%
    04:00 +1°C° 0 mm 2 m/s 633 mmHg 81%
    05:00 -1°C° 0 mm 2 m/s 633 mmHg 81%
    06:00 +1°C° 0 mm 1 m/s 633 mmHg 82%
    07:00 +2°C° 0 mm 2 m/s 633 mmHg 78%
    08:00 +3°C° 0 mm 2 m/s 634 mmHg 74%
    09:00 +4°C° 0 mm 2 m/s 635 mmHg 70%
    10:00 +4°C° 0 mm 3 m/s 635 mmHg 66%
    11:00 +5°C° 0 mm 3 m/s 635 mmHg 63%
    12:00 +7°C° 0 mm 3 m/s 635 mmHg 60%
    13:00 +7°C° 0 mm 3 m/s 635 mmHg 60%
    14:00 +7°C° 0 mm 3 m/s 635 mmHg 59%
    15:00 +7°C° 0 mm 3 m/s 634 mmHg 59%
    16:00 +5°C° 0 mm 3 m/s 634 mmHg 64%
    17:00 +4°C° 0 mm 3 m/s 633 mmHg 69%
    18:00 +3°C° 0 mm 3 m/s 633 mmHg 75%
    19:00 +4°C° 0 mm 2 m/s 633 mmHg 75%
    20:00 +3°C° 0 mm 2 m/s 633 mmHg 76%
    21:00 +3°C° 0 mm 2 m/s 633 mmHg 77%
    22:00 +3°C° 0 mm 2 m/s 633 mmHg 77%
    23:00 +2°C° 0 mm 2 m/s 633 mmHg 76%

    Demain, 24 Février, Lundi

    Heure Température Précipitation Vent Pression Humidité
    00:00 +2°C° 0 mm 2 m/s 632 mmHg 76%
    01:00 +2°C° 0 mm 2 m/s 632 mmHg 76%
    02:00 +2°C° 0 mm 2 m/s 632 mmHg 77%
    03:00 +2°C° 0 mm 2 m/s 632 mmHg 77%
    04:00 +1°C° 0 mm 2 m/s 632 mmHg 78%
    05:00 +1°C° 0 mm 2 m/s 632 mmHg 78%
    06:00 +1°C° 0 mm 2 m/s 631 mmHg 79%
    07:00 +2°C° 0 mm 2 m/s 632 mmHg 74%
    08:00 +4°C° 0 mm 2 m/s 633 mmHg 70%
    09:00 +4°C° 0 mm 3 m/s 633 mmHg 65%
    10:00 +5°C° 0 mm 3 m/s 633 mmHg 61%
    11:00 +7°C° 0 mm 3 m/s 633 mmHg 57%
    12:00 +7°C° 0 mm 4 m/s 632 mmHg 53%
    13:00 +7°C° 0 mm 4 m/s 632 mmHg 53%
    14:00 +7°C° 0 mm 5 m/s 631 mmHg 53%
    15:00 +7°C° 0 mm 5 m/s 630 mmHg 52%
    16:00 +6°C° 0 mm 5 m/s 630 mmHg 57%
    17:00 +5°C° 0 mm 5 m/s 629 mmHg 61%
    18:00 +3°C° 0 mm 5 m/s 628 mmHg 65%
    19:00 +4°C° 0 mm 4 m/s 628 mmHg 65%
    20:00 +4°C° 0 mm 4 m/s 628 mmHg 65%
    21:00 +4°C° 0 mm 4 m/s 628 mmHg 65%
    22:00 +4°C° 0 mm 4 m/s 627 mmHg 64%
    23:00 +3°C° 0 mm 4 m/s 627 mmHg 64%

    Après-demain, 25 Février, Mardi

    Heure Température Précipitation Vent Pression Humidité
    00:00 +2°C° 0 mm 5 m/s 626 mmHg 63%
    01:00 +2°C° 0 mm 5 m/s 626 mmHg 63%
    02:00 +2°C° 0 mm 5 m/s 625 mmHg 62%
    03:00 +3°C° 0 mm 4 m/s 625 mmHg 61%
    04:00 +1°C° 0 mm 5 m/s 625 mmHg 62%
    05:00 +1°C° 0 mm 5 m/s 625 mmHg 62%
    06:00 +1°C° 0 mm 5 m/s 625 mmHg 63%
    07:00 +3°C° 0 mm 5 m/s 626 mmHg 58%
    08:00 +5°C° 0 mm 5 m/s 626 mmHg 54%
    09:00 +7°C° 0 mm 5 m/s 627 mmHg 49%
    10:00 +7°C° 0 mm 4 m/s 627 mmHg 47%
    11:00 +8°C° 0 mm 4 m/s 628 mmHg 44%
    12:00 +10°C° 0 mm 3 m/s 628 mmHg 42%
    13:00 +8°C° 0 mm 3 m/s 628 mmHg 48%
    14:00 +6°C° 0 mm 4 m/s 628 mmHg 54%
    15:00 +4°C° 0 mm 4 m/s 628 mmHg 61%
    16:00 +1°C° 0.3 mm 4 m/s 628 mmHg 69%
    17:00 -1°C° 0.3 mm 4 m/s 628 mmHg 78%
    18:00 -3°C° 0.3 mm 4 m/s 629 mmHg 87%
    19:00 -4°C° 0.5 mm 3 m/s 629 mmHg 87%
    20:00 -4°C° 0.5 mm 3 m/s 630 mmHg 87%
    21:00 -3°C° 0.5 mm 2 m/s 631 mmHg 87%
    22:00 -4°C° 0.1 mm 2 m/s 631 mmHg 85%
    23:00 -4°C° 0.1 mm 2 m/s 632 mmHg 83%

    26 Février, Mercredi

    Heure Température Précipitation Vent Pression Humidité
    00:00 -4°C° 0.1 mm 2 m/s 632 mmHg 81%
    01:00 -4°C° 0 mm 2 m/s 632 mmHg 78%
    02:00 -5°C° 0 mm 2 m/s 632 mmHg 74%
    03:00 -3°C° 0 mm 1 m/s 632 mmHg 71%
    04:00 -5°C° 0 mm 2 m/s 632 mmHg 70%
    05:00 -5°C° 0 mm 2 m/s 632 mmHg 69%
    06:00 -5°C° 0 mm 2 m/s 633 mmHg 68%
    07:00 -5°C° 0 mm 2 m/s 633 mmHg 69%
    08:00 -4°C° 0 mm 2 m/s 633 mmHg 70%
    09:00 -4°C° 0 mm 3 m/s 634 mmHg 70%
    10:00 -4°C° 0 mm 3 m/s 634 mmHg 72%
    11:00 -4°C° 0 mm 3 m/s 634 mmHg 73%
    12:00 -2°C° 0 mm 3 m/s 633 mmHg 74%
    13:00 -2°C° 0 mm 3 m/s 633 mmHg 75%
    14:00 -2°C° 0 mm 3 m/s 633 mmHg 76%
    15:00 -2°C° 0 mm 2 m/s 633 mmHg 77%
    16:00 -3°C° 0 mm 2 m/s 633 mmHg 80%
    17:00 -3°C° 0 mm 2 m/s 633 mmHg 83%
    18:00 -2°C° 0 mm 1 m/s 633 mmHg 86%
    19:00 -2°C° 0 mm 1 m/s 633 mmHg 85%
    20:00 -2°C° 0 mm 1 m/s 633 mmHg 83%
    21:00 -2°C° 0 mm 1 m/s 633 mmHg 81%
    22:00 -2°C° 0 mm 1 m/s 633 mmHg 81%
    23:00 -2°C° 0 mm 1 m/s 633 mmHg 81%

    27 Février, Jeudi

    Heure Température Précipitation Vent Pression Humidité
    00:00 -2°C° 0 mm 1 m/s 633 mmHg 81%
    01:00 -2°C° 0 mm 1 m/s 633 mmHg 81%
    02:00 -2°C° 0 mm 1 m/s 633 mmHg 80%
    03:00 -2°C° 0 mm 1 m/s 632 mmHg 79%
    04:00 -2°C° 0 mm 1 m/s 632 mmHg 77%
    05:00 -2°C° 0 mm 1 m/s 632 mmHg 75%
    06:00 -2°C° 0 mm 1 m/s 632 mmHg 73%
    07:00 0°C° 0 mm 1 m/s 633 mmHg 67%
    08:00 +1°C° 0 mm 1 m/s 634 mmHg 60%
    09:00 +2°C° 0 mm 2 m/s 635 mmHg 53%
    10:00 +3°C° 0 mm 2 m/s 635 mmHg 51%
    11:00 +4°C° 0 mm 2 m/s 635 mmHg 48%
    12:00 +6°C° 0 mm 2 m/s 635 mmHg 45%
    13:00 +6°C° 0 mm 2 m/s 634 mmHg 47%
    14:00 +7°C° 0 mm 1 m/s 634 mmHg 48%
    15:00 +8°C° 0 mm 1 m/s 634 mmHg 50%
    16:00 +6°C° 0 mm 1 m/s 633 mmHg 53%
    17:00 +5°C° 0 mm 1 m/s 633 mmHg 57%
    18:00 +3°C° 0 mm 2 m/s 632 mmHg 60%
    19:00 +2°C° 0 mm 2 m/s 632 mmHg 59%
    20:00 +2°C° 0 mm 2 m/s 632 mmHg 58%
    21:00 +2°C° 0 mm 2 m/s 632 mmHg 56%
    22:00 +2°C° 0 mm 2 m/s 631 mmHg 56%
    23:00 +1°C° 0 mm 2 m/s 631 mmHg 55%

    28 Février, Vendredi

    Heure Température Précipitation Vent Pression Humidité
    00:00 +2°C° 0 mm 1 m/s 631 mmHg 55%
    01:00 +2°C° 0 mm 1 m/s 631 mmHg 54%
    02:00 +1°C° 0 mm 2 m/s 630 mmHg 54%
    03:00 +1°C° 0 mm 2 m/s 630 mmHg 53%
    04:00 +1°C° 0 mm 2 m/s 630 mmHg 53%
    05:00 +1°C° 0 mm 2 m/s 630 mmHg 53%
    06:00 +1°C° 0 mm 2 m/s 629 mmHg 53%
    07:00 +2°C° 0 mm 2 m/s 630 mmHg 50%
    08:00 +4°C° 0 mm 2 m/s 630 mmHg 47%
    09:00 +6°C° 0 mm 2 m/s 631 mmHg 44%
    10:00 +7°C° 0 mm 2 m/s 631 mmHg 43%
    11:00 +8°C° 0 mm 2 m/s 631 mmHg 42%
    12:00 +10°C° 0 mm 2 m/s 631 mmHg 41%
    13:00 +10°C° 0 mm 3 m/s 631 mmHg 42%
    14:00 +10°C° 0 mm 3 m/s 631 mmHg 43%
    15:00 +10°C° 0 mm 3 m/s 630 mmHg 43%
    16:00 +9°C° 0 mm 3 m/s 630 mmHg 46%
    17:00 +7°C° 0 mm 3 m/s 629 mmHg 49%
    18:00 +5°C° 0 mm 3 m/s 628 mmHg 52%
    19:00 +4°C° 0 mm 3 m/s 628 mmHg 51%
    20:00 +3°C° 0 mm 3 m/s 628 mmHg 51%
    21:00 +3°C° 0 mm 3 m/s 628 mmHg 50%
    22:00 +3°C° 0 mm 3 m/s 627 mmHg 49%
    23:00 +3°C° 0 mm 3 m/s 627 mmHg 48%
    Voir plus